Tracking 18980 objects as of 23-Feb-2018
HD Live streaming from Space Station
objects crossing your sky now

SL-16 DEB

Track SL-16 DEB now!
10-day predictions


NORAD ID: 24303
Int'l Code: 1996-051G
Perigee: 820.6 km
Apogee: 925.8 km
Inclination: 71.1 °
Period: 102.3 minutes
Semi major axis: 7244 km
RCS: 0.4797 m2 (medium)
Launch date: September 4, 1996
Source: Commonwealth of Independent States (former USSR) (CIS)
Launch site: TYURATAM MISSILE AND SPACE COMPLEX (TTMTR)

Note: This is SATELLITE DEBRIS
aabbcc
Your satellite tracking list
Your tracking list is empty




NASA's NSSDC Master Catalog

Two Line Element Set (TLE):
1 24303U 96051G   18053.52335044 -.00000151 +00000-0 -60180-4 0  9994
2 24303 071.1067 183.2288 0072586 293.6078 135.5943 14.08053869103188
Source of the keplerian elements: AFSPC